Weather History for KLXV - February, 2012

Change the Weather History Date:

Thursday, February 9, 2012

  Actual Average Record
Temperature  
Mean Temperature 15 °F -  
Max Temperature 24 °F 31 °F 51 °F (1987)
Min Temperature 5 °F 4 °F -20 °F (2011)
Degree Days  
Heating Degree Days 50 48  
Month to date heating degree days 465 432  
Since 1 July heating degree days 6529 6829  
Cooling Degree Days 0 0  
Month to date cooling degree days 0 0  
Year to date cooling degree days 0 0  
Moisture  
Dew Point 13 °F    
Average Humidity 77    
Maximum Humidity 92    
Minimum Humidity 62    
Precipitation  
Precipitation 0.02 in 0.03 in 0.23 in (2014)
Month to date precipitation 0.32 0.21  
Year to date precipitation 1.39 0.83  
Sea Level Pressure  
Sea Level Pressure 30.12 in    
Wind  
Wind Speed 9 mph (NNE)    
Max Wind Speed 23 mph    
Max Gust Speed 29 mph    
Visibility 6 miles    
Events Snow    
T = Trace of Precipitation, MM = Missing Value Source: NWS Daily Summary

Daily Weather History Graph

Daily Weather History Graph

Search for Another Location

Airport or City:

Trip Planner

Search our weather history database for the weather conditions in past years. The results will help you decide how hot, cold, wet, or windy it might be!

Date:

Astronomy

Feb. 09, 2012 Rise Set
Actual Time 7:04 AM MST 5:34 PM MST
Civil Twilight 6:36 AM MST 6:02 PM MST
Nautical Twilight 6:05 AM MST 6:34 PM MST
Astronomical Twilight 5:33 AM MST 7:05 PM MST
Moon 8:05 PM MST (2/9) 7:43 AM MST (2/9)
Length of Visible Light 11h 25m
Length of Day
10h 30m
Waning Gibbous, 95% of the Moon is Illuminated
Feb 9
Waning Gibbous
Feb 14
Last Quarter
Feb 21
New
Feb 29
First Quarter
Mar 8
Full

Hourly Weather History & Observations

Time (MST) Temp. Windchill Dew Point Humidity Pressure Visibility Wind Dir Wind Speed Gust Speed Precip Events Conditions
12:19 AM 19.4 °F 10.4 °F 17.6 °F 93% 30.14 in 2.0 mi ENE 6.9 mph - 0.01 in Snow Light Snow
12:35 AM 19.4 °F 11.5 °F 17.6 °F 93% 30.14 in 4.0 mi ENE 5.8 mph - 0.01 in Snow Light Snow
12:53 AM 19.0 °F 11.1 °F 17.1 °F 92% 30.05 in 2.5 mi ENE 5.8 mph - 0.01 in Snow Light Snow
1:23 AM 19.4 °F 9.5 °F 17.6 °F 93% 30.13 in 3.0 mi NE 8.1 mph - 0.00 in Snow Light Snow
1:30 AM 19.4 °F 11.5 °F 17.6 °F 93% 30.14 in 2.5 mi NNE 5.8 mph - 0.00 in Snow Light Snow
1:53 AM 19.0 °F 10.0 °F 16.0 °F 88% 30.06 in 2.5 mi NNE 6.9 mph - 0.00 in Snow Light Snow
2:15 AM 17.6 °F 8.2 °F 15.8 °F 93% 30.13 in 3.0 mi NNE 6.9 mph - 0.00 in Snow Light Snow
2:53 AM 18.0 °F 9.8 °F 15.1 °F 88% 30.07 in 6.0 mi North 5.8 mph - 0.00 in Snow Light Snow
3:09 AM 17.6 °F 6.4 °F 15.8 °F 93% 30.12 in 7.0 mi North 9.2 mph - 0.00 in Snow Light Snow
3:53 AM 18.0 °F 7.7 °F 15.1 °F 88% 30.07 in 3.0 mi North 8.1 mph - 0.00 in Snow Light Snow
4:53 AM 17.1 °F 7.6 °F 14.0 °F 88% 30.09 in 8.0 mi NNW 6.9 mph - 0.00 in Snow Light Snow
5:24 AM 15.8 °F 7.2 °F 12.2 °F 86% 30.13 in 8.0 mi NNW 5.8 mph - 0.00 in Snow Light Snow
5:53 AM 16.0 °F 7.4 °F 12.9 °F 88% 30.10 in 10.0 mi North 5.8 mph - 0.00 in   Overcast
6:49 AM 14.0 °F 8.2 °F 10.4 °F 86% 30.12 in 10.0 mi NE 3.5 mph - N/A   Overcast
6:53 AM 15.1 °F 9.4 °F 12.0 °F 88% 30.09 in 10.0 mi North 3.5 mph - N/A   Overcast
7:53 AM 12.9 °F 3.8 °F 10.0 °F 88% 30.11 in 10.0 mi NNE 5.8 mph - 0.00 in   Mostly Cloudy
8:25 AM 19.4 °F 11.5 °F 12.2 °F 74% 30.14 in 10.0 mi NNE 5.8 mph - N/A   Mostly Cloudy
8:53 AM 19.9 °F 11.1 °F 12.0 °F 71% 30.06 in 10.0 mi ENE 6.9 mph - N/A   Overcast
9:48 AM 19.4 °F 7.9 °F 12.2 °F 74% 30.14 in 2.5 mi NNE 10.4 mph - 0.00 in Snow Light Snow
9:53 AM 21.9 °F 13.4 °F 12.9 °F 68% 30.08 in 4.0 mi North 6.9 mph - 0.00 in Snow Light Snow
10:53 AM 21.9 °F 7.8 °F 12.0 °F 66% 30.08 in 10.0 mi NNW 17.3 mph - 0.00 in   Overcast
11:31 AM 23.0 °F 13.9 °F 12.2 °F 63% 30.12 in 10.0 mi NE 8.1 mph - 0.00 in   Overcast
11:51 AM 23.0 °F 12.4 °F 14.0 °F 68% 30.12 in 10.0 mi NNE 10.4 mph - 0.00 in   Overcast
11:53 AM 23.0 °F 11.7 °F 14.0 °F 68% 30.06 in 10.0 mi North 11.5 mph - 0.00 in   Overcast
12:08 PM 24.8 °F 12.4 °F 12.2 °F 59% 30.11 in 10.0 mi NW 15.0 mph 23.0 mph N/A   Overcast
12:53 PM 23.0 °F 9.2 °F 12.9 °F 65% 30.05 in 10.0 mi NW 17.3 mph 24.2 mph N/A   Mostly Cloudy
1:53 PM 24.1 °F 13.1 °F 14.0 °F 65% 30.04 in 10.0 mi North 11.5 mph 18.4 mph 0.00 in   Overcast
2:20 PM 21.2 °F 7.3 °F 15.8 °F 80% 30.10 in 1.5 mi North 16.1 mph 23.0 mph 0.00 in Snow Light Snow
2:29 PM 21.2 °F 11.7 °F 17.6 °F 86% 30.10 in 0.8 mi NNW 8.1 mph 20.7 mph 0.00 in Snow Light Snow
2:35 PM 21.2 °F 10.1 °F 15.8 °F 80% 30.09 in 2.0 mi NNW 10.4 mph 17.3 mph 0.00 in Snow Light Snow
2:41 PM 21.2 °F 8.3 °F 15.8 °F 80% 30.09 in 4.0 mi NNW 13.8 mph 18.4 mph 0.00 in Snow Light Snow
2:51 PM 21.2 °F 7.8 °F 15.8 °F 80% 30.11 in 2.5 mi NNE 15.0 mph 20.7 mph 0.00 in Snow Light Snow
2:53 PM 21.9 °F 9.2 °F 16.0 °F 78% 30.07 in 2.0 mi NNE 13.8 mph 20.7 mph 0.00 in Snow Light Snow
2:56 PM 21.2 °F 8.9 °F 15.8 °F 80% 30.11 in 1.5 mi North 12.7 mph 20.7 mph 0.00 in Snow Light Snow
3:02 PM 21.2 °F 10.9 °F 15.8 °F 80% 30.11 in 0.8 mi North 9.2 mph 19.6 mph 0.00 in Snow Light Snow
3:12 PM 19.4 °F 5.5 °F 14.0 °F 80% 30.11 in 0.5 mi NE 15.0 mph 21.9 mph 0.00 in Snow Snow
3:28 PM 19.4 °F 5.5 °F 12.2 °F 74% 30.12 in 2.0 mi North 15.0 mph - 0.01 in Snow Light Snow
3:36 PM 19.4 °F 7.9 °F 12.2 °F 74% 30.11 in 8.0 mi North 10.4 mph 19.6 mph 0.01 in   Overcast
3:53 PM 19.9 °F 9.3 °F 12.0 °F 71% 30.09 in 7.0 mi North 9.2 mph - 0.01 in Snow Light Snow
4:20 PM 19.4 °F 7.9 °F 10.4 °F 68% 30.11 in 10.0 mi NNE 10.4 mph - 0.00 in   Overcast
4:25 PM 19.4 °F 5.5 °F 10.4 °F 68% 30.12 in 2.0 mi NNE 15.0 mph 20.7 mph 0.00 in Snow Light Snow
4:32 PM 19.4 °F 6.6 °F 12.2 °F 74% 30.12 in 1.0 mi NNE 12.7 mph 20.7 mph 0.00 in Snow Light Snow
4:39 PM 19.4 °F 7.2 °F 12.2 °F 74% 30.12 in 3.0 mi NNE 11.5 mph 18.4 mph 0.00 in Snow Light Snow
4:53 PM 19.0 °F 5.0 °F 10.9 °F 71% 30.12 in 10.0 mi NNE 15.0 mph 20.7 mph 0.00 in   Overcast
5:30 PM 17.6 °F 5.7 °F 8.6 °F 68% 30.14 in 10.0 mi NE 10.4 mph - 0.00 in   Scattered Clouds
5:53 PM 17.1 °F 2.5 °F 9.0 °F 71% 30.15 in 10.0 mi NE 15.0 mph - 0.00 in   Clear
6:53 PM 15.1 °F 1.8 °F 8.1 °F 74% 30.20 in 10.0 mi NE 11.5 mph 19.6 mph N/A   Clear
7:53 PM 12.9 °F 2.6 °F 6.1 °F 74% 30.25 in 10.0 mi NNE 6.9 mph - N/A   Clear
8:53 PM 9.0 °F 0.6 °F 6.1 °F 88% 30.22 in 10.0 mi North 4.6 mph - N/A   Clear
9:53 PM 5.0 °F -5.6 °F 1.9 °F 87% 30.25 in 10.0 mi NNE 5.8 mph - N/A   Clear
10:53 PM 10.0 °F -2.9 °F 6.1 °F 84% 30.21 in 10.0 mi NNE 9.2 mph - N/A   Clear
11:53 PM 5.0 °F -8.1 °F 1.9 °F 87% 30.24 in 10.0 mi ENE 8.1 mph - N/A   Clear